SIA28 EDDF-WSSS

Flight info

Callsign SIA28
Flight time N/A
Altitude 31000
Route SULUS7S/18 SULUS Z650 VEMUT/N0484F350 DCT NELPA DCT PEPIK/N0482F370 DCT AMRAX DCT NARKA DCT RULES DCT ELROM DCT MOBRA DCT DENAK DCT DINRO DCT UDROS DCT ABSAX DCT REBLO P130 BODKA/N0484F390 P130 MAMED B449 RANAH L750 ZB G202 RK P628 IBANI L510 GURVI T1 OPONI/N0488F410 T1 BBS L759 PUT B579 VPL Y503 RINBA Y507 MAKNA Y511 TOPOR A464 ARAMA ARAMA1A
Aircraft A359/H-SDE2E3GHIJ3J4J5LM1ORWXY/LB1D1

Departure

Time 2026-05-04 14:40
Airport Frankfurt Main Airport (EDDF)

Arrival

Time N/A
Airport Singapore Changi Airport (WSSS)
Time Latitude Longitude Altitude Speed Heading
2026-05-04 14:14 50.04814 8.57714 375 ft 0 kts 231°
2026-05-04 14:25 50.04819 8.57724 375 ft 2 kts 218°
2026-05-04 14:25 50.04832 8.57739 378 ft 2 kts 204°
2026-05-04 14:26 50.04848 8.57744 375 ft 2 kts 175°
2026-05-04 14:26 50.04864 8.57738 375 ft 2 kts 150°
2026-05-04 14:26 50.04877 8.57722 375 ft 2 kts 131°
2026-05-04 14:26 50.04883 8.57711 377 ft 1 kts 120°
2026-05-04 14:27 50.04883 8.57710 377 ft 0 kts 119°
2026-05-04 14:30 50.04865 8.57774 376 ft 8 kts 113°
2026-05-04 14:31 50.04836 8.57867 377 ft 11 kts 124°
2026-05-04 14:31 50.04702 8.57869 377 ft 12 kts 242°
2026-05-04 14:32 50.04618 8.57526 374 ft 20 kts 250°
2026-05-04 14:32 50.04570 8.57324 371 ft 21 kts 249°
2026-05-04 14:32 50.04517 8.57104 370 ft 22 kts 251°
2026-05-04 14:32 50.04465 8.56878 370 ft 22 kts 250°
2026-05-04 14:33 50.04411 8.56651 372 ft 23 kts 249°
2026-05-04 14:33 50.04353 8.56411 368 ft 24 kts 249°
2026-05-04 14:33 50.04291 8.56153 363 ft 27 kts 250°
2026-05-04 14:33 50.04227 8.55882 363 ft 26 kts 249°
2026-05-04 14:34 50.04164 8.55618 369 ft 26 kts 249°
2026-05-04 14:34 50.04098 8.55348 365 ft 27 kts 249°
2026-05-04 14:34 50.04033 8.55076 364 ft 28 kts 249°
2026-05-04 14:34 50.03965 8.54791 363 ft 30 kts 249°
2026-05-04 14:35 50.03891 8.54484 360 ft 30 kts 249°
2026-05-04 14:35 50.03797 8.54202 361 ft 28 kts 247°
2026-05-04 14:35 50.03725 8.53911 354 ft 29 kts 249°
2026-05-04 14:35 50.03653 8.53610 349 ft 31 kts 249°
2026-05-04 14:36 50.03578 8.53303 351 ft 30 kts 249°
2026-05-04 14:36 50.03507 8.53012 356 ft 27 kts 249°
2026-05-04 14:36 50.03449 8.52784 360 ft 14 kts 248°
2026-05-04 14:36 50.03436 8.52738 361 ft 0 kts 246°
2026-05-04 14:37 50.03431 8.52720 363 ft 5 kts 247°
2026-05-04 14:38 50.03406 8.52634 360 ft 7 kts 240°
2026-05-04 14:38 50.03363 8.52596 361 ft 8 kts 188°
2026-05-04 14:38 50.03296 8.52594 359 ft 11 kts 180°
2026-05-04 14:38 50.03040 8.52597 348 ft 68 kts 180°
2026-05-04 14:39 50.02386 8.52603 362 ft 120 kts 180°
2026-05-04 14:39 50.01381 8.52613 377 ft 164 kts 179°
2026-05-04 14:39 50.00248 8.52654 902 ft 164 kts 180°
2026-05-04 14:40 49.97775 8.52692 1644 ft 198 kts 179°
2026-05-04 14:40 49.96412 8.53497 1761 ft 223 kts 142°
2026-05-04 14:40 49.95465 8.55461 2128 ft 234 kts 121°
2026-05-04 14:40 49.94697 8.57696 2702 ft 235 kts 118°
2026-05-04 14:41 49.94091 8.60085 3150 ft 243 kts 102°
2026-05-04 14:41 49.93883 8.62772 3417 ft 259 kts 94°
2026-05-04 14:41 49.93564 8.68517 4378 ft 273 kts 108°
2026-05-04 14:42 49.91055 8.72759 5547 ft 270 kts 147°
2026-05-04 14:42 49.89512 8.74396 6319 ft 265 kts 146°
2026-05-04 14:42 49.88190 8.76346 6945 ft 267 kts 129°
2026-05-04 14:43 49.87182 8.78802 7473 ft 272 kts 122°
2026-05-04 14:43 49.86255 8.81388 8060 ft 274 kts 121°
2026-05-04 14:43 49.85336 8.84004 8847 ft 276 kts 121°
2026-05-04 14:43 49.84421 8.86593 9647 ft 279 kts 122°
2026-05-04 14:44 49.83641 8.89406 10337 ft 290 kts 110°
2026-05-04 14:44 49.83410 8.92592 10699 ft 312 kts 89°
2026-05-04 14:44 49.83748 8.96040 10973 ft 328 kts 81°
2026-05-04 14:44 49.84242 8.99559 11217 ft 342 kts 80°
2026-05-04 14:45 49.84781 9.03202 11598 ft 355 kts 79°
2026-05-04 14:45 49.85334 9.07001 11992 ft 367 kts 79°
2026-05-04 14:45 49.85893 9.10886 12404 ft 378 kts 79°
2026-05-04 14:45 49.86470 9.14953 12729 ft 388 kts 79°
2026-05-04 14:46 49.87036 9.18971 13111 ft 393 kts 79°
2026-05-04 14:46 49.87626 9.23159 13531 ft 396 kts 79°
2026-05-04 14:46 49.88208 9.27304 13948 ft 399 kts 79°
2026-05-04 14:46 49.88799 9.31542 14313 ft 402 kts 79°
2026-05-04 14:47 49.89392 9.35815 14668 ft 406 kts 79°
2026-05-04 14:47 49.89983 9.40078 15040 ft 409 kts 79°
2026-05-04 14:47 49.90585 9.44421 15379 ft 412 kts 79°
2026-05-04 14:47 49.91189 9.48805 15775 ft 415 kts 79°
2026-05-04 14:48 49.91590 9.51719 15996 ft 417 kts 80°
2026-05-04 14:48 49.92394 9.57597 16479 ft 421 kts 80°
2026-05-04 14:48 49.92798 9.60559 16714 ft 423 kts 80°
2026-05-04 14:48 49.93617 9.66580 17197 ft 427 kts 80°
2026-05-04 14:49 49.94226 9.71081 17551 ft 430 kts 80°
2026-05-04 14:49 49.94634 9.74094 17774 ft 432 kts 80°
2026-05-04 14:49 49.95255 9.78692 18133 ft 434 kts 80°
2026-05-04 14:49 49.95877 9.83315 18443 ft 437 kts 80°
2026-05-04 14:50 49.96702 9.89462 18850 ft 441 kts 80°
2026-05-04 14:50 49.97116 9.92565 19064 ft 442 kts 80°
2026-05-04 14:50 49.97740 9.97266 19355 ft 444 kts 80°
2026-05-04 14:50 49.98367 10.01993 19676 ft 446 kts 80°
2026-05-04 14:51 49.98990 10.06697 19972 ft 449 kts 80°
2026-05-04 14:51 49.99620 10.11475 20266 ft 451 kts 80°
2026-05-04 14:51 50.00251 10.16267 20564 ft 452 kts 81°
2026-05-04 14:51 50.00881 10.21090 20841 ft 455 kts 81°
2026-05-04 14:52 50.01506 10.25884 21126 ft 457 kts 81°
2026-05-04 14:52 50.02133 10.30705 21414 ft 459 kts 81°
2026-05-04 14:52 50.02764 10.35583 21699 ft 461 kts 81°
2026-05-04 14:52 50.03403 10.40522 21988 ft 463 kts 81°
2026-05-04 14:53 50.04039 10.45466 22269 ft 465 kts 81°
2026-05-04 14:53 50.04672 10.50405 22570 ft 467 kts 81°
2026-05-04 14:53 50.05303 10.55345 22858 ft 469 kts 81°
2026-05-04 14:53 50.05941 10.60355 23152 ft 472 kts 81°
2026-05-04 14:54 50.06570 10.65325 23441 ft 474 kts 81°
2026-05-04 14:54 50.07007 10.70407 23680 ft 473 kts 90°
2026-05-04 14:54 50.06812 10.75535 23902 ft 470 kts 103°
2026-05-04 14:54 50.06097 10.80509 24160 ft 469 kts 108°
2026-05-04 14:55 50.05171 10.85323 24401 ft 469 kts 111°
2026-05-04 14:55 50.04118 10.90145 24648 ft 470 kts 112°
2026-05-04 14:55 50.03019 10.94972 24900 ft 472 kts 112°
2026-05-04 14:55 50.01930 10.99758 25151 ft 474 kts 112°
2026-05-04 14:56 50.00845 11.04615 25387 ft 476 kts 112°
2026-05-04 14:56 49.99771 11.09515 25646 ft 478 kts 111°
2026-05-04 14:56 49.98721 11.14369 25899 ft 479 kts 111°
2026-05-04 14:56 49.97658 11.19329 26153 ft 482 kts 111°
2026-05-04 14:57 49.96612 11.24226 26402 ft 483 kts 111°
2026-05-04 14:57 49.95552 11.29231 26658 ft 485 kts 111°
2026-05-04 14:57 49.94494 11.34232 26920 ft 487 kts 111°
2026-05-04 14:57 49.93445 11.39185 27163 ft 489 kts 111°
2026-05-04 14:58 49.92388 11.44238 27423 ft 492 kts 110°
2026-05-04 14:58 49.91406 11.49369 27690 ft 494 kts 109°
2026-05-04 14:58 49.90485 11.54481 27932 ft 496 kts 108°
2026-05-04 14:58 49.89567 11.59660 28188 ft 498 kts 108°
2026-05-04 14:59 49.88651 11.64882 28435 ft 501 kts 107°
2026-05-04 14:59 49.87981 11.70171 28665 ft 505 kts 102°
2026-05-04 14:59 49.86945 11.80974 29137 ft 510 kts 100°
2026-05-04 15:00 49.86464 11.86464 29355 ft 512 kts 100°
2026-05-04 15:00 49.85994 11.91888 29577 ft 514 kts 100°
2026-05-04 15:00 49.85513 11.97397 29796 ft 516 kts 100°
2026-05-04 15:01 49.84544 12.08387 30413 ft 516 kts 100°
2026-05-04 15:01 49.84045 12.13925 30706 ft 515 kts 100°
2026-05-04 15:01 49.83541 12.19453 30941 ft 516 kts 100°
2026-05-04 15:01 49.83039 12.24919 30983 ft 519 kts 100°
2026-05-04 15:02 49.82017 12.36056 30971 ft 521 kts 100°
2026-05-04 15:02 49.80795 12.47012 31458 ft 513 kts 107°
2026-05-04 15:03 49.79838 12.52337 31939 ft 510 kts 108°
2026-05-04 15:03 49.78836 12.57559 32295 ft 508 kts 109°
2026-05-04 15:03 49.77786 12.62821 32630 ft 508 kts 109°
2026-05-04 15:03 49.76736 12.67988 32955 ft 507 kts 109°
2026-05-04 15:04 49.75671 12.73196 33311 ft 506 kts 109°
2026-05-04 15:04 49.74614 12.78363 33653 ft 505 kts 109°
2026-05-04 15:04 49.73553 12.83557 33965 ft 504 kts 109°
2026-05-04 15:04 49.72506 12.88688 34239 ft 503 kts 109°
2026-05-04 15:05 49.71450 12.93860 34518 ft 502 kts 109°
2026-05-04 15:05 49.70409 12.98961 34755 ft 502 kts 109°
2026-05-04 15:05 49.69351 13.04126 34934 ft 503 kts 109°
2026-05-04 15:05 49.68299 13.09244 34962 ft 507 kts 109°
2026-05-04 15:06 49.66154 13.19639 34966 ft 508 kts 109°
2026-05-04 15:07 49.62922 13.35211 34965 ft 509 kts 109°
2026-05-04 15:07 49.60755 13.45581 34966 ft 509 kts 109°
2026-05-04 15:08 49.58562 13.56021 34963 ft 510 kts 110°
2026-05-04 15:08 49.56372 13.66396 34965 ft 511 kts 110°
2026-05-04 15:09 49.54170 13.76773 34967 ft 511 kts 110°
2026-05-04 15:09 49.51945 13.87204 34962 ft 511 kts 110°
2026-05-04 15:10 49.48616 14.02713 34965 ft 511 kts 110°
2026-05-04 15:11 49.45250 14.18279 34966 ft 511 kts 110°
2026-05-04 15:11 49.43003 14.28600 34967 ft 511 kts 110°
2026-05-04 15:12 49.40732 14.38979 34970 ft 511 kts 110°
2026-05-04 15:12 49.38466 14.49289 34963 ft 511 kts 110°
2026-05-04 15:13 49.36192 14.59581 34962 ft 511 kts 110°
2026-05-04 15:13 49.33892 14.69944 34968 ft 511 kts 110°
2026-05-04 15:14 49.31601 14.80214 34968 ft 511 kts 110°
2026-05-04 15:14 49.29296 14.90497 34967 ft 511 kts 110°
2026-05-04 15:15 49.26968 15.00829 34967 ft 511 kts 110°
2026-05-04 15:15 49.24666 15.11080 34970 ft 511 kts 110°
2026-05-04 15:16 49.21191 15.26502 34968 ft 511 kts 110°
2026-05-04 15:17 49.17702 15.41839 34970 ft 510 kts 110°
2026-05-04 15:17 49.14183 15.57189 34971 ft 510 kts 110°
2026-05-04 15:18 49.11829 15.67401 34978 ft 510 kts 110°
2026-05-04 15:19 49.08293 15.82646 34982 ft 510 kts 110°
2026-05-04 15:19 49.04729 15.97902 34987 ft 509 kts 110°
2026-05-04 15:20 49.02333 16.08100 34986 ft 509 kts 110°
2026-05-04 15:20 48.99945 16.18213 34985 ft 509 kts 110°
2026-05-04 15:21 48.97533 16.28386 34980 ft 509 kts 110°
2026-05-04 15:22 48.93914 16.43554 34967 ft 508 kts 110°
2026-05-04 15:22 48.90292 16.58635 34967 ft 508 kts 110°
2026-05-04 15:23 48.87850 16.68744 34968 ft 507 kts 110°
2026-05-04 15:23 48.85415 16.78775 34966 ft 507 kts 110°
2026-05-04 15:24 48.80527 16.98777 34969 ft 505 kts 110°
2026-05-04 15:25 48.78067 17.08782 34974 ft 504 kts 110°
2026-05-04 15:26 48.73940 17.23409 34981 ft 504 kts 115°
2026-05-04 15:26 48.69587 17.37912 34987 ft 504 kts 114°
2026-05-04 15:27 48.65330 17.52378 34993 ft 504 kts 114°
2026-05-04 15:28 48.61052 17.66918 34993 ft 504 kts 114°
2026-05-04 15:29 48.56770 17.81370 34995 ft 503 kts 114°
2026-05-04 15:30 48.46706 18.14999 35009 ft 502 kts 114°
2026-05-04 15:31 48.42369 18.29342 35018 ft 502 kts 114°
2026-05-04 15:32 48.35104 18.53194 35024 ft 501 kts 114°
2026-05-04 15:34 48.27818 18.76878 35034 ft 500 kts 114°
2026-05-04 15:34 48.23412 18.91098 35035 ft 500 kts 114°
2026-05-04 15:35 48.19003 19.05246 35035 ft 499 kts 114°
2026-05-04 15:36 48.14597 19.19300 35041 ft 498 kts 114°
2026-05-04 15:36 48.12127 19.27146 35040 ft 498 kts 114°
2026-05-04 15:37 48.09174 19.36495 35042 ft 497 kts 114°
2026-05-04 15:37 48.06189 19.45813 35042 ft 497 kts 115°
2026-05-04 15:38 48.03180 19.55078 35051 ft 497 kts 115°
2026-05-04 15:38 48.00141 19.64408 35045 ft 497 kts 115°
2026-05-04 15:39 47.97121 19.73665 35052 ft 497 kts 115°
2026-05-04 15:40 47.92582 19.87528 35052 ft 497 kts 115°
2026-05-04 15:40 47.89542 19.96768 35054 ft 497 kts 115°
2026-05-04 15:41 47.86493 20.06002 35053 ft 497 kts 115°
2026-05-04 15:41 47.83440 20.15213 35057 ft 497 kts 115°
2026-05-04 15:42 47.80379 20.24416 35058 ft 497 kts 115°
2026-05-04 15:42 47.77288 20.33677 35060 ft 497 kts 115°
2026-05-04 15:43 47.74212 20.42862 35060 ft 497 kts 115°
2026-05-04 15:43 47.71126 20.52042 35058 ft 497 kts 115°
2026-05-04 15:44 47.68024 20.61236 35062 ft 498 kts 115°
2026-05-04 15:44 47.64926 20.70387 35063 ft 497 kts 114°
2026-05-04 15:45 47.61812 20.79552 35061 ft 498 kts 114°
2026-05-04 15:45 47.58692 20.88703 35061 ft 498 kts 114°
2026-05-04 15:46 47.55570 20.97827 35064 ft 498 kts 115°
2026-05-04 15:46 47.52440 21.06943 35068 ft 498 kts 115°
2026-05-04 15:47 47.49302 21.16051 35067 ft 498 kts 115°
2026-05-04 15:47 47.46140 21.25195 35074 ft 498 kts 115°
2026-05-04 15:48 47.42984 21.34290 35071 ft 498 kts 115°
2026-05-04 15:48 47.38237 21.47914 35075 ft 497 kts 115°
2026-05-04 15:49 47.35068 21.56966 35076 ft 497 kts 115°
2026-05-04 15:49 47.31898 21.65991 35072 ft 497 kts 115°
2026-05-04 15:50 47.28707 21.75048 35073 ft 497 kts 115°
2026-05-04 15:50 47.25539 21.84059 35071 ft 496 kts 113°
2026-05-04 15:51 47.22959 21.93432 35073 ft 493 kts 108°
2026-05-04 15:51 47.20572 22.02916 35073 ft 493 kts 109°
2026-05-04 15:52 47.17346 22.11843 35075 ft 496 kts 120°
2026-05-04 15:52 47.13512 22.20294 35077 ft 497 kts 122°
2026-05-04 15:53 47.09594 22.28579 35077 ft 497 kts 123°
2026-05-04 15:53 47.05651 22.36908 35075 ft 496 kts 123°
2026-05-04 15:54 47.01728 22.45236 35076 ft 496 kts 123°
2026-05-04 15:54 46.97806 22.53563 35080 ft 496 kts 123°
2026-05-04 15:55 46.93880 22.61876 35078 ft 496 kts 123°
2026-05-04 15:55 46.89981 22.70105 35080 ft 496 kts 123°
2026-05-04 15:56 46.86043 22.78388 35083 ft 496 kts 123°
2026-05-04 15:56 46.82102 22.86655 35082 ft 496 kts 123°
2026-05-04 15:57 46.78167 22.94884 35085 ft 496 kts 123°
2026-05-04 15:57 46.74235 23.03079 35080 ft 496 kts 123°
2026-05-04 15:58 46.70295 23.11321 35084 ft 495 kts 123°
2026-05-04 15:58 46.66357 23.19586 35074 ft 495 kts 123°
2026-05-04 15:59 46.62421 23.27822 35067 ft 495 kts 123°
2026-05-04 15:59 46.58479 23.36035 35063 ft 495 kts 123°
2026-05-04 16:00 46.54553 23.44181 35062 ft 495 kts 123°
2026-05-04 16:00 46.50594 23.52376 35056 ft 495 kts 123°
2026-05-04 16:01 46.46638 23.60544 35053 ft 495 kts 123°
2026-05-04 16:01 46.42675 23.68698 35050 ft 494 kts 123°
2026-05-04 16:02 46.38705 23.76847 35041 ft 494 kts 123°
2026-05-04 16:03 46.32745 23.89033 35034 ft 494 kts 123°
2026-05-04 16:03 46.28769 23.97133 35038 ft 494 kts 123°
2026-05-04 16:04 46.24788 24.05219 35034 ft 493 kts 123°
2026-05-04 16:04 46.18831 24.17277 35035 ft 493 kts 124°
2026-05-04 16:05 46.14840 24.25327 35042 ft 492 kts 124°
2026-05-04 16:06 46.08856 24.37353 35029 ft 492 kts 124°
2026-05-04 16:07 46.00855 24.53350 35028 ft 491 kts 124°
2026-05-04 16:08 45.92882 24.69205 35037 ft 492 kts 124°